Powrót do katalogu

STARLINK-2726

AktywnyŁącznośćVLEO
NORAD 48662·PAYLOAD·🇺🇸 United States

Wystrzelony May 26, 2021 z Cape Canaveral Space Force Station

Loading…

Następne Przeloty (najbliższe 24 godziny)

TLE

ŚwieżeSource: CelesTrak SupGP

Epoka: Sep 14, 2026, 14:15 UTC

1 48662C 21044AA  26257.59423611  .00052803  00000+0  16981-2 0  2571
2 48662  53.1594 316.3000 0001331  76.5579 103.7997 15.31674506    10

Śledź STARLINK-2726 w czasie rzeczywistym z AllMySat

Download on the App Store